Regional Weather Roundup
Issued by NWS Northern Indiana

Home | Current Version | Previous Version | Text Only | Print | Product List | Glossary Off
Versions: 1 2 3 4 5 6 7 8 9 10 11 12 13 14 15 16 17 18 19 20 21 22 23 24 25 26 27 28 29 30 31 32 33 34 35 36 37 38 39 40 41 42 43 44 45 46 47 48 49 50

000
ASUS43 KIWX 182100
RWRIWX

KIWX WEATHER ROUNDUP
NATIONAL WEATHER SERVICE NORTHERN INDIANA
400 PM EST WED JAN 18 2017

NOTE: "FAIR" INDICATES FEW OR NO CLOUDS BELOW 12,000 FEET WITH NO
SIGNIFICANT WEATHER AND/OR OBSTRUCTIONS TO VISIBILITY.

* THESE STATIONS ARE NOT UNDER NWS QUALITY CONTROL. THEY ALSO MAY NOT
  REPORT WEATHER SUCH AS PRECIPITATION OR FOG.

INZ001>027-182200-
NORTHERN INDIANA

CITY           SKY/WX    TMP DP  RH WIND       PRES   REMARKS
GARY*          PTSUNNY   39  32  75 MISG      30.08F
KNOX*          CLOUDY    34  27  75 SW12      30.09S WCI  25
SOUTH BEND     CLOUDY    33  33 100 SW17      30.09R FOG     WCI  22
ELKHART*       CLOUDY    36  32  87 SW9       30.08  FOG
FORT WAYNE     CLOUDY    36  33  89 SW13      30.10F
PERU/GRISSOM   CLOUDY    36  36 100 SW9       30.09S

$$
INZ028>050-182200-
CENTRAL INDIANA

CITY           SKY/WX    TMP DP  RH WIND       PRES   REMARKS
LAFAYETTE      CLOUDY    37  35  92 SW9       30.10F
KOKOMO*        CLOUDY    36  35  96 SW10      30.11F
MUNCIE*        CLOUDY    38  35  89 SW6       30.10F
INDIANAPOLIS   CLOUDY    38  35  89 SW10      30.12F

$$
MIZ043>046-050>051-056>058-064>065-071>073-077>080-182200-
SOUTHWEST LOWER MICHIGAN

CITY           SKY/WX    TMP DP  RH WIND       PRES   REMARKS
BATTLE CREEK   CLOUDY    36  35  96 SW15      30.05S FOG
BENTON HARBOR  CLOUDY    35  33  92 SW12      30.08R FOG     WCI  27
COLDWATER*     CLOUDY    35  35 100 SW12      30.07S FOG     WCI  26
HILLSDALE*     CLOUDY    34  32  93 W7        30.05R FOG     WCI  28
HOLLAND        CLOUDY    36  34  92 SW14G22   30.07R
GRAND RAPIDS   CLOUDY    36  34  92 W12       30.06R FOG
KALAMAZOO      CLOUDY    36  33  89 SW10      30.06S FOG
STURGIS*       CLOUDY    34  34  99 SW12      30.06S FOG     WCI  25
THREE RIVERS*  CLOUDY    35  34  97 SW7       30.07F FOG     WCI  29

$$
OHZ001>008-015>018-024>025-182200-
NORTHWEST OHIO

CITY           SKY/WX    TMP DP  RH WIND       PRES   REMARKS
DEFIANCE       CLOUDY    36  33  89 SW9       30.09S
FINDLAY        CLOUDY    38  33  82 SW12      30.09R
TOLEDO EXPRESS CLOUDY    38  36  92 W14       30.08R
TOLEDO METCALF CLOUDY    40  37  89 SW12      30.09R
LIMA           CLOUDY    36  34  92 SW14      30.10S

$$
AND FOR LAKE MICHIGAN COASTAL AND OPEN LAKE BUOY OBSERVATIONS

STATION/POSITION TEMP    WIND        PRES    VSBY  WAVE
                 AIR SEA DIR/SP/G                  HT/PER
                 (F)     (DEG/KT/KT) (MB)    (MI)  (FT/S)
CALUMET HARBOR    37     210/ 12/ 19 1017.5F
BURNS HARBOR      36     220/ 12/ 16 1019.0F
SAINT JOSEPH      34     220/ 15/ 16 1017.9

$$
&&




USA.gov is the U.S. government's official web portal to all federal, state and local government web resources and services.